User: anonymous   Login
Location: Bryzozowice
(50.3667°N, 18.9667°E)
Time: 01:28:40
(UTC+00:00)
Language:

USA 267 - Orbit

View from above orbital plane
View from above orbital plane
View from above satellite
View from above satellite

Ground track
Ground track

The orbit data is extracted from the following two-line orbital elements,

1 41334U 16010A   20090.11164376 0.00000000  00000-0  00000-0 0    06
2 41334 122.9964   1.2724 0003870 110.5407 249.4592 13.41429676    00
Epoch (UTC): 30 March 2020 02:40:46
Eccentricity: 0.0003870
inclination: 122.9964°
perigee height: 1101 km
apogee height: 1107 km
right ascension of ascending node: 1.2724°
argument of perigee: 110.5407°
revolutions per day: 13.41429676
mean anomaly at epoch: 249.4592°
orbit number at epoch: 0

The dashed part of the orbit path shows where the satellite is in the earth's shadow,  

DLR